Find Kosmos-2479

NORAD ID: 38101 Int'l Des: 2012-012 Owner: PVO Country: RU operational
MEOCIRCULAR

Live Position

Loading 3D Globe...

About Kosmos-2479

Description loading...

Upcoming Passes

Passes for default location (London). Set your location on the main map for personalized predictions.

Altitude History

Loading altitude history...

Two-Line Element Set

1 38101U 12012A 26105.51872494 .00000151 00000-0 00000-0 0 9990
2 38101 8.7090 56.9630 0006215 247.3853 111.8178 1.00357626 51456
Epoch: Apr 15, 2026 • Age: 10 hours

Current Status

Altitude 35764.9 km
Velocity 3.08 km/s
Sub-Earth Point 4.31°N, 26.09°E
Launch Date Mar 30, 2012
Age 14 years
Type other

Technical Details

Classification Payload
Mass 2580.00 kg
Dry Mass 2200.00 kg
Total Mass 2580.00 kg
Length 5.00 m
Diameter 2.00 m
Span 10.00 m
Shape Step Cyl + 2 Pan
Manufacturer NPOL/KOMET
Bus Type Prognoz
Phase Status In Orbit
Owner/State PVO/RU

Most Searched